DW0542 Weather Reports


Display with metric or nautical units.
time (UTC)temp
F
wind
direction
speed
MPH
gust
MPH
rain 1hr
in
rain 24hr
in
rain mn
in
humidity
%
barometer
mb
20260502191551 53 193 1.0 7.0 0.00 0.07 0.07 75 1010.5
20260502190049 52 193 0.0 6.0 0.00 0.07 0.07 77 1010.7
20260502184555 52 194 2.0 7.0 0.00 0.07 0.07 75 1010.8
20260502183047 52 167 1.0 6.0 0.00 0.07 0.07 74 1010.7
20260502181546 53 172 2.0 8.0 0.00 0.07 0.07 73 1010.8
20260502163038 51 314 0.0 1.0 0.00 0.07 0.07 82 1011.4
20260502161537 51 303 0.0 0.0 0.00 0.07 0.07 82 1011.7
20260502151530 50 216 0.0 2.0 0.00 0.07 0.07 86 1012.1
20260502123050 47 196 0.0 0.0 0.01 0.01 0.01 85 1013.0
20260502121533 47 196 2.0 6.0 0.00 0.00 0.00 84 1013.0
20260502114545 47 180 0.0 3.0 0.00 0.00 0.00 84 1012.7
20260502113039 47 128 0.0 2.0 0.00 0.00 0.00 84 1012.3
20260502111540 47 106 0.0 0.0 0.00 0.00 0.00 84 1011.8
20260502110036 46 106 0.0 1.0 0.00 0.00 0.00 84 1012.1
20260502104535 46 105 0.0 0.0 0.00 0.00 0.00 84 1012.2
20260502103038 46 105 0.0 0.0 0.00 0.00 0.00 83 1011.9
20260502101531 46 105 0.0 0.0 0.00 0.00 0.00 83 1011.9
20260502091526 46 105 0.0 0.0 0.00 0.00 0.00 82 1011.5
20260502071515 47 105 0.0 0.0 0.00 0.00 0.00 77 1011.3
20260502070019 47 105 0.0 0.0 0.00 0.00 0.00 77 1011.6
20260502064508 47 105 0.0 0.0 0.00 0.00 0.00 77 1011.6
20260502063012 47 105 0.0 0.0 0.00 0.00 0.00 78 1011.8
20260502061506 47 105 0.0 1.0 0.00 0.00 0.00 77 1012.1
20260502060002 47 105 0.0 0.0 0.00 0.00 0.00 75 1011.8
20260502054501 47 105 0.0 0.0 0.00 0.00 0.00 73 1011.9
20260502053001 48 105 0.0 0.0 0.00 0.00 0.00 73 1011.9
20260502051559 48 105 0.0 0.0 0.00 0.00 0.00 72 1012.0
20260502050031 48 105 0.0 0.0 0.00 0.00 0.00 71 1012.0
20260502044529 48 105 0.0 0.0 0.00 0.00 0.00 70 1012.0
20260502043025 48 105 0.0 0.0 0.00 0.00 0.00 69 1012.0
20260502041525 48 105 0.0 0.0 0.00 0.00 0.00 67 1012.0
20260502040023 49 105 0.0 0.0 0.00 0.00 0.00 65 1012.1
20260502034524 49 105 0.0 0.0 0.00 0.00 0.00 64 1012.1
20260502033020 50 105 0.0 0.0 0.00 0.00 0.00 63 1012.1
20260502031522 50 105 0.0 0.0 0.00 0.00 0.00 63 1012.1
20260502030019 50 105 0.0 0.0 0.00 0.00 0.00 61 1012.1
20260502024518 50 105 0.0 0.0 0.00 0.00 0.00 60 1012.0
20260502023014 50 105 0.0 0.0 0.00 0.00 0.00 61 1012.1
20260502021516 49 105 0.0 0.0 0.00 0.00 0.00 62 1012.0
20260502020012 49 105 0.0 0.0 0.00 0.00 0.00 61 1012.0
20260502014524 47 99 0.0 1.0 0.00 0.00 0.00 65 1011.9
20260502013044 48 280 0.0 0.0 0.00 0.00 0.00 63 1011.4
20260502011635 49 280 0.0 0.0 0.00 0.00 0.00 61 1011.4
20260502010027 50 280 0.0 0.0 0.00 0.00 0.00 56 1011.3
20260502004539 51 280 0.0 0.0 0.00 0.00 0.00 53 1011.0
20260502003019 53 280 0.0 0.0 0.00 0.00 0.00 51 1011.0
20260502001515 55 280 0.0 0.0 0.00 0.00 0.00 48 1010.7
20260502000008 58 280 0.0 0.0 0.00 0.00 0.00 44 1010.4
20260501234506 59 280 0.0 3.0 0.00 0.00 0.00 40 1010.4
20260501233003 59 280 0.0 1.0 0.00 0.00 0.00 42 1010.0
20260501231501 60 280 3.0 11.0 0.00 0.00 0.00 40 1009.8
20260501230058 60 267 3.0 9.0 0.00 0.00 0.00 41 1009.6
20260501224558 60 285 0.0 12.0 0.00 0.00 0.00 40 1009.6
20260501223105 60 266 1.0 11.0 0.00 0.00 0.00 38 1009.6
20260501221555 60 287 4.0 11.0 0.00 0.00 0.00 43 1009.6
20260501220055 60 296 8.0 13.0 0.00 0.00 0.00 37 1009.6
20260501214549 60 284 5.0 15.0 0.00 0.00 0.00 40 1009.5
20260501213106 60 250 8.0 18.0 0.00 0.00 0.00 40 1009.6
20260501211546 59 270 5.0 12.0 0.00 0.00 0.00 36 1009.2
20260501210043 59 268 9.0 13.0 0.00 0.00 0.00 41 1009.3
20260501204547 59 289 3.0 13.0 0.00 0.00 0.00 41 1009.2
20260501203040 59 258 4.0 10.0 0.00 0.00 0.00 37 1009.2
20260501201540 59 261 7.0 14.0 0.00 0.00 0.00 37 1009.1
20260501200038 59 272 5.0 12.0 0.00 0.00 0.00 42 1009.1
20260501194512 59 259 3.0 13.0 0.00 0.00 0.00 41 1009.2
20260501193005 58 279 5.0 14.0 0.00 0.00 0.00 44 1009.4